Regional Weather Roundup
Issued by NWS

Home | Current Version | Previous Version | Graphics & Text | Print | Product List | Glossary Off
Versions: 1 2 3 4 5 6 7 8 9 10 11 12 13 14 15 16 17 18 19 20 21 22 23 24 25 26 27 28 29 30 31 32 33 34 35 36 37 38 39 40 41 42 43 44 45 46 47 48 49 50

000
ASUS43 KTOP 292259
RWRKS

WEATHER ROUNDUP FOR KANSAS
NATIONAL WEATHER SERVICE GOODLAND KS
600 PM CDT MON JUN 29 2015

NOTE:  "FAIR" INDICATES FEW OR NO CLOUDS BELOW 12,000 FEET WITH NO
SIGNIFICANT WEATHER AND/OR OBSTRUCTIONS TO VISIBILITY.

KSZ001>006-013>018-027>032-041>047-300000-
NORTHWEST KANSAS

CITY           SKY/WX    TMP DP  RH WIND       PRES   REMARKS
GOODLAND       PTSUNNY   89  50  26 E6        30.08F
HAYS           SUNNY     97  50  20 N10G17    29.97F
HILL CITY      SUNNY     96  52  22 N8        29.98F
RUSSELL        SUNNY     95  50  21 N10       29.95F
$$

KSZ061>065-074>080-084>089-300000-
SOUTHWEST KANSAS

CITY           SKY/WX    TMP DP  RH WIND       PRES   REMARKS
DODGE CITY     SUNNY     88  51  28 SW7       30.02F
ELKHART          N/A     91  53  27 S6          N/A
GARDEN CITY    PTSUNNY   83  57  41 NW7       30.06S
GREAT BEND     SUNNY     93  54  26 NE9       29.96F
LIBERAL        MOSUNNY   90  55  31 SW3       30.07F
$$

KSZ066>073-081>083-090>101-300000-
SOUTHEAST KANSAS

CITY           SKY/WX    TMP DP  RH WIND       PRES   REMARKS
CHANUTE        MOSUNNY   88  61  40 N6        29.93F
COFFEYVILLE    SUNNY     89  60  37 NW6       29.92F
HUTCHINSON     SUNNY     91  57  31 N7        29.95F
MEDICINE LODGE   N/A     95  54  25 N8        29.94F
NEWTON         SUNNY     86  55  35 N8        29.99F
PARSONS        SUNNY     87  64  46 NW7       29.94F
WICHITA INTL   PTSUNNY   91  53  27 N9        29.94F
WICHITA JABRA  SUNNY     88  56  33 NE6       29.95F
WINFIELD       SUNNY     88  57  34 N8        29.96F
$$

KSZ007>012-019>026-033>040-048>060-102>105-300000-
NORTHEAST KANSAS

CITY           SKY/WX    TMP DP  RH WIND       PRES   REMARKS
CONCORDIA      SUNNY     87  58  37 N8        29.95F
EMPORIA        SUNNY     86  57  37 NW5       29.94F
LAWRENCE       SUNNY     85  62  46 NW10      29.91F
MANHATTAN      SUNNY     90  57  32 W5        29.92F
OLATHE IND     SUNNY     84  63  49 NW12      29.92F
OLATHE EXE     MOSUNNY   84  61  45 NW10      29.91F
SALINA         SUNNY     93  54  26 N7        29.94F
TOPEKA BILLARD SUNNY     86  62  44 NW7       29.91F
TOPEKA FORBES  MOSUNNY   87  62  43 W6        29.92F
$$



USA.gov is the U.S. government's official web portal to all federal, state and local government web resources and services.